This demonstration page uses our WeatherBlox Daily Observations layout. Learn more.

Left ArrowRight Arrow

34.74481, -87.66753

Hourly Observations for April 27, 2015

Temp ( °F °C ) Dew Point ( °F °C ) Humidity (%) Winds ( mph kmh ) Pressure ( in mb ) Visibility ( mi km ) Precip ( " mm )
12:53 am 00:53 Clear 51 10.6 46 7.8 83 83 N 3 6 29.89 1012 10 16 0.00 0.00
1:53 am 01:53 Clear 51 10.6 46 7.8 83 83 N 3 6 29.88 1012 10 16 0.00 0.00
2:53 am 02:53 Clear 50 10 46 7.8 86 86 N 6 9 29.88 1012 9 14 0.00 0.00
3:53 am 03:53 Clear 50 10 44 6.7 80 80 NNE 7 11 29.89 1012 10 16 0.00 0.00
4:53 am 04:53 Clear 50 10 43 6.1 77 77 VRB 5 7 29.88 1012 9 14 0.00 0.00
5:53 am 05:53 Clear 50 10 41 5 71 71 NNE 5 7 29.93 1013 10 16 0.00 0.00
6:53 am 06:53 Sunny 50 10 42 5.6 74 74 ENE 6 9 29.96 1014 10 16 0.00 0.00
7:53 am 07:53 Sunny 54 12.2 43 6.1 67 67 ENE 7 11 29.98 1015 10 16 0.00 0.00
8:53 am 08:53 Sunny 56 13.3 43 6.1 62 62 ENE 7 11 29.98 1015 10 16 0.00 0.00
9:53 am 09:53 Sunny 57 13.9 41 5 55 55 VRB 7 11 30.01 1016 10 16 0.00 0.00
10:53 am 10:53 Sunny 60 15.6 42 5.6 52 52 ENE 6 9 30.00 1016 10 16 0.00 0.00
11:53 am 11:53 Sunny 62 16.7 39 3.9 43 43 VRB 6 9 29.97 1015 10 16 0.00 0.00
12:53 pm 12:53 Sunny 63 17.2 40 4.4 43 43 N 7 11 29.96 1015 10 16 0.00 0.00
1:53 pm 13:53 Sunny 64 17.8 41 5 43 43 ENE 10 17 29.96 1015 10 16 0.00 0.00
2:53 pm 14:53 Sunny 65 18.3 42 5.6 43 43 NE 8 13 29.93 1014 10 16 0.00 0.00
3:53 pm 15:53 Sunny 67 19.4 42 5.6 41 41 VRB 5 7 29.93 1013 10 16 0.00 0.00
4:53 pm 16:53 Sunny 67 19.4 41 5 39 39 VRB 5 7 29.91 1013 10 16 0.00 0.00
5:53 pm 17:53 Sunny 65 18.3 39 3.9 39 39 NNE 5 7 29.90 1013 10 16 0.00 0.00
6:53 pm 18:53 Sunny 64 17.8 39 3.9 40 40 ENE 5 7 29.91 1013 10 16 0.00 0.00
7:53 pm 19:53 Clear 59 15 40 4.4 49 49 ENE 5 7 29.93 1013 10 16 0.00 0.00
8:53 pm 20:53 Clear 59 15 40 4.4 49 49 ENE 6 9 29.93 1014 10 16 0.00 0.00
9:53 pm 21:53 Clear 57 13.9 41 5 55 55 ENE 3 6 29.95 1014 10 16 0.00 0.00
10:53 pm 22:53 Clear 57 13.9 41 5 55 55 VRB 3 6 29.94 1014 10 16 0.00 0.00
11:53 pm 23:53 Clear 55 12.8 41 5 59 59 NNE 6 9 29.94 1014 10 16 0.00 0.00

Powered by AerisWeather